Location: Newark
(49.8969°N, 3.3422°E)
Time: 00:59:20
(UTC+00:00)

A-11 Canister half - Pass Details

Date: 27 January 2020
Orbit: 1517 x 1683 km, 47.2° (Epoch: 20 February)

Event Time Altitude Azimuth Distance (km) Brightness Sun altitude
Exits shadow 02:21:28 29° 104° (ESE) 2,521 10.2 -47.8°
Drops below altitude 10° 02:25:15 10° 101° (E) 3,687 11.3 -47.3°
Sets 02:28:18 0° 100° (E) 4,679 12.0 -46.9°
